User: anonymous   Login
Location: ???? ?????
(30.0052°N, 31.2891°E)
Time: 07:44:44
(UTC+00:00)
Language:

Nadezhda 1 Rocket - Orbit

View from above orbital plane
View from above orbital plane
View from above satellite
View from above satellite

Ground track
Ground track

The orbit data is extracted from the following two-line orbital elements,

1 20104U 89050B   22228.68410710  .00000146  00000-0  13132-3 0  9996
2 20104  82.9551 211.5610 0042331 301.7715  57.9322 13.77361524664072
Epoch (UTC): 16 August 2022 16:25:06
Eccentricity: 0.0042331
inclination: 82.9551°
perigee height: 942 km
apogee height: 1004 km
right ascension of ascending node: 211.5610°
argument of perigee: 301.7715°
revolutions per day: 13.77361524
mean anomaly at epoch: 57.9322°
orbit number at epoch: 66407

The dashed part of the orbit path shows where the satellite is in the earth's shadow,  

DLR